Home   Weather   Overland Park   Past weeks

Flag for USA Past Weather in Overland Park, Kansas, USA — Yesterday and Last 2 Weeks

Now
42 °F

Scattered clouds.


Feels Like: 37 °F
Forecast: 35 / 46 °F
Wind: 8 mph from West

Location: Johnson County Executive Airport

Current Time: Dec 4, 2016 at 4:30:43 pm

Latest Report: Dec 4, 2016 at 3:53 pm


Visibility: 10 mi

Pressure: 30.00 "Hg

Humidity: 79%

Dew Point: 36 °F

Location of Overland ParkLocation

Past Weather in Overland Park — Graph

°F

Overland Park Temperature Yesterday

Maximum temperature yesterday: 48 °F (at 2:53 pm)
Minimum temperature yesterday: 33 °F (at 4:53 am)
Average temperature yesterday: 41 °F

High & Low Weather Summary for the Past Weeks

 TemperatureHumidityPressure
High58 °F (Nov 28, 10:53 am)97% (Nov 23, 1:53 am)30.52 "Hg (Nov 23, 1:53 am)
Low27 °F (Nov 20, 6:53 am)34% (Nov 19, 3:53 pm)29.15 "Hg (Nov 28, 12:53 pm)
Average42 °F69%30.01 "Hg
* Reported Nov 19 2:53 pm — Dec 4 2:53 pm, Overland Park, Weather by CustomWeather, © 2016

Note: Actual official high and low records may vary slightly from our data, if they occured in-between our weather recording intervals... More about our weather records

Advertising

Overland Park Weather History for the Previous 24 Hours

Scroll right to see more
 ConditionsComfort  
Time TempWeatherWind HumidityBarometerVisibility
2:53 pm
Sun, Dec 4
42 °FScattered clouds.8 mph76%30.00 "Hg10 mi
1:53 pm42 °FOvercast.6 mph79%29.98 "Hg10 mi
12:53 pm42 °FOvercast.7 mph82%29.98 "Hg10 mi
11:53 am40 °FOvercast.7 mph89%30.01 "Hg10 mi
10:53 am40 °FOvercast.7 mph89%30.02 "Hg10 mi
9:53 am38 °FLow clouds.3 mph93%30.03 "Hg10 mi
8:53 am36 °FLow clouds.8 mph92%30.03 "Hg10 mi
7:55 am36 °FLight rain. Mostly cloudy.6 mph92%30.00 "Hg10 mi
6:53 am37 °FLight rain. Overcast.6 mph96%30.02 "Hg7 mi
5:53 am38 °FLight rain. Fog.6 mph97%30.03 "Hg6 mi
4:53 am38 °FLight rain. Fog.5 mph97%30.03 "Hg5 mi
3:53 am38 °FLight rain. Fog.9 mph97%30.03 "Hg6 mi
2:53 am38 °FLight rain. Fog.13 mph97%30.05 "Hg6 mi
1:53 am39 °FLight rain. Fog.8 mph96%30.06 "Hg5 mi
12:53 am39 °FLight rain. Fog.3 mph96%30.09 "Hg4 mi
11:48 pm
Sat, Dec 3
39 °FLight rain. Fog.5 mph96%30.11 "Hg4 mi
10:53 pm40 °FLight rain. Mostly cloudy.7 mph93%30.11 "Hg7 mi
9:53 pm42 °FLight rain. Overcast.10 mph82%30.12 "Hg10 mi
8:53 pm44 °FOvercast.9 mph65%30.12 "Hg10 mi
7:53 pm44 °FOvercast.7 mph63%30.13 "Hg10 mi
6:53 pm45 °FOvercast.N/A60%30.14 "Hg10 mi
5:53 pm45 °FMostly cloudy.7 mph58%30.15 "Hg10 mi
4:53 pm46 °FOvercast.7 mph56%30.15 "Hg10 mi
Weather by CustomWeather, © 2016

See weather overviewHow to use our weather pages